Regional Weather Roundup
Issued by NWS

Home | Current Version | Previous Version | Text Only | Print | Product List | Glossary On
Versions: 1 2 3 4 5 6 7 8 9 10 11 12 13 14 15 16 17 18 19 20 21 22 23 24 25 26 27 28 29 30 31 32 33 34 35 36 37 38 39 40 41 42 43 44 45 46 47 48 49 50
000
ASUS43 KTOP 210208
RWRKS

WEATHER ROUNDUP FOR KANSAS
NATIONAL WEATHER SERVICE GOODLAND KS
900 PM CDT THU JUL 20 2017

NOTE:  "FAIR" INDICATES FEW OR NO CLOUDS BELOW 12,000 FEET WITH NO
SIGNIFICANT WEATHER AND/OR OBSTRUCTIONS TO VISIBILITY.

KSZ001>006-013>018-027>032-041>047-210300-
NORTHWEST KANSAS

CITY           SKY/WX    TMP DP  RH WIND       PRES   REMARKS
GOODLAND       CLEAR     83  67  58 S7        29.95R
HAYS           CLEAR     89  59  36 S9        29.89R
HILL CITY      CLEAR     93  59  31 S9        29.87S
RUSSELL        CLEAR     92  59  33 S10       29.88R
$$

KSZ061>065-074>080-084>089-210300-
SOUTHWEST KANSAS

CITY           SKY/WX    TMP DP  RH WIND       PRES   REMARKS
DODGE CITY     CLEAR     90  57  32 S9        29.94S
ELKHART          N/A     85  50  30 S9          N/A
GARDEN CITY    CLEAR     86  60  41 SE9       29.94R
LIBERAL        CLEAR     86  58  38 S12       29.96S
PRATT          CLEAR     91  56  30 S10       29.93S
$$

KSZ066>073-081>083-090>101-210300-
SOUTHEAST KANSAS

CITY           SKY/WX    TMP DP  RH WIND       PRES   REMARKS
CHANUTE        CLEAR     88  73  61 SE10      29.98R HX  95
COFFEYVILLE    CLEAR     88  74  63 SE10      29.97S HX  96
HUTCHINSON     CLEAR     90  61  37 S8        29.91S
MEDICINE LODGE   N/A     93  58  30 S9        29.91S
NEWTON         CLEAR     90  66  45 S13       29.95R
PARSONS        CLEAR     87  73  62 S6        29.99R
WICHITA INTL   PTCLDY    92  66  42 SE16      29.92S
WICHITA JABRA  CLEAR     91  65  41 SE13      29.94R
WICHITA MCCONL CLEAR     91  64  41 S13       29.94S
WINFIELD       CLEAR     90  67  46 SE10      29.95S
$$

KSZ007>012-019>026-033>040-048>060-102>105-210300-
NORTHEAST KANSAS

CITY           SKY/WX    TMP DP  RH WIND       PRES   REMARKS
CONCORDIA      CLEAR     86  69  56 S10       29.88S
EMPORIA        CLEAR     88  70  55 SE10      29.95R
LAWRENCE       CLEAR     86  78  77 SE7       29.93S HX  98
MANHATTAN      CLEAR     91  68  46 S7        29.89S HX  95
MARYSVILLE     CLEAR     90  68  48 S8        29.89F
OLATHE IND     CLEAR     86  75  69 S9        29.97S HX  95
OLATHE EXE     CLEAR     83  76  79 S6        29.97S
SALINA         CLEAR     95  63  34 SE12      29.89R HX  96
TOPEKA BILLARD CLEAR     90  75  61 SE14      29.92S HX 100
TOPEKA FORBES  CLEAR     89  75  63 SE9       29.94S HX  99
$$



USA.gov is the U.S. government's official web portal to all federal, state and local government web resources and services.